Temp
75 77 82 83 83 83 82 82 82 83 82 82 82 83 83 83 83 83 83 83 83 83 83 83 83 83 84 84 83 83 83 83 83 83 83 83 83 83 83 83 83 83 82
79 81 82 82 83 83 83 82 82 82 82 82 83 83 83 83 83 83 83 82 83 83 83 84 83 83 84 84 83 83 83 83 83 84 84 84 83 83 83 83 82 82 82
80 81 82 82 83 83 83 83 83 83 83 82 83 83 83 83 83 83 83 83 83 84 84 84 84 84 84 84 83 83 83 83 84 84 83 81 81 83 83 83 83 82 82
81 80 80 81 82 83 83 83 83 83 83 83 83 83 83 83 84 84 84 84 84 84 84 84 84 84 84 83 83 84 84 84 84 85 82 82 83 83 82 83 82 82 82
82 80 80 82 82 83 83 83 83 83 83 83 83 84 83 84 84 84 84 84 83 84 84 84 84 83 83 83 83 83 84 85 84 83 78 76 77 82 83 82 82 82 82
80 79 82 83 83 83 83 83 83 83 83 83 83 83 84 84 84 84 84 84 84 84 84 84 84 83 83 83 83 83 84 85 83 79 76 78 76 82 82 82 82 81 81
77 79 81 82 83 83 83 83 83 83 83 83 83 83 84 84 84 85 85 84 84 84 84 84 84 83 83 83 83 83 84 86 80 77 76 76 77 81 82 82 81 81 81
80 80 81 83 83 83 83 83 83 84 84 83 83 84 84 84 84 84 85 85 85 84 84 84 84 83 83 83 83 83 84 86 83 78 77 75 79 81 82 82 81 81 81
82 80 79 80 82 83 83 84 84 83 84 84 84 84 84 84 84 85 84 85 85 85 84 84 83 83 83 83 83 83 84 85 79 78 80 75 80 82 82 81 81 81 81
82 81 80 79 79 78 79 84 84 84 84 84 84 84 84 85 85 84 83 84 85 85 85 84 83 83 83 84 84 84 84 85 79 78 76 76 80 82 82 81 81 81 80
83 81 78 81 77 77 78 82 83 84 84 84 83 84 82 76 80 82 83 84 85 85 85 84 84 84 83 83 83 84 85 78 79 77 75 79 80 82 82 81 81 81 81
73 79 76 81 80 79 85 78 77 80 77 75 74 75 75 76 74 82 82 84 85 85 85 84 81 80 84 80 79 82 78 81 79 76 75 80 81 82 82 82 81 81 81
79 82 79 80 81 79 80 77 77 77 77 75 74 72 74 75 76 73 76 75 78 81 77 80 76 74 76 79 79 79 78 80 77 77 77 80 81 82 82 82 82 82 82
82 80 80 80 79 78 80 77 76 77 77 76 75 75 73 71 69 70 70 72 72 71 68 73 75 79 79 79 80 82 82 80 76 74 76 80 80 82 83 82 82 82 82
83 82 79 82 80 79 81 77 78 77 79 76 73 73 73 72 71 70 68 72 71 73 75 75 77 80 79 82 84 85 84 80 78 76 73 81 80 81 82 83 83 83 83
81 82 79 79 80 81 78 82 79 77 77 75 75 75 74 74 72 71 69 72 71 72 75 75 79 79 80 82 82 84 84 83 80 78 75 76 81 81 82 83 83 83 83
80 79 78 79 81 80 77 78 77 79 81 72 72 74 74 75 79 73 75 74 76 77 81 81 80 80 75 78 81 82 83 84 82 80 78 75 77 82 82 82 82 82 83
79 77 82 86 81 80 78 80 78 79 78 78 74 73 76 80 79 78 76 76 77 77 74 78 79 79 76 76 78 80 80 82 84 82 80 79 78 82 80 82 82 82 83
79 77 82 79 79 79 79 79 80 79 77 79 79 79 80 82 83 76 75 75 76 76 74 75 77 78 78 78 80 79 78 79 83 88 83 82 80 81 79 80 81 81 83
80 80 78 78 79 78 78 80 78 78 79 80 80 81 81 79 84 79 78 74 71 71 78 79 77 79 81 79 85 85 79 79 80 80 83 87 82 83 82 81 79 80 81
80 81 80 78 78 77 79 74 75 75 77 77 80 82 82 81 82 80 77 75 73 71 73 79 79 78 78 78 77 77 77 80 80 80 82 82 82 84 84 82 80 79 81
79 79 77 77 76 77 79 75 77 76 76 77 78 80 82 82 82 79 76 74 76 73 77 78 78 76 76 77 71 72 71 68 79 82 80 84 82 84 86 87 85 84 82
79 78 77 79 77 76 78 76 76 75 77 75 78 77 82 82 82 80 78 74 74 74 73 76 77 76 73 76 77 76 70 71 70 75 76 80 74 75 75 73 75 75 76
80 81 79 77 77 77 77 76 75 72 71 73 72 76 79 81 82 81 81 79 77 74 75 75 80 77 75 73 76 82 71 70 63 66 76 74 76 71 71 71 70 71 73
83 80 80 78 75 76 75 76 73 71 71 72 72 73 72 78 83 83 81 80 77 76 75 77 77 76 76 74 73 74 71 69 70 64 62 65 68 70 72 70 71 69 71
84 82 80 77 75 75 74 76 74 72 71 71 71 71 70 72 76 81 81 79 77 77 77 77 76 77 76 76 74 72 70 67 66 65 63 66 64 69 70 69 68 69 69
MSLP
1016.63 1016.57 1016.74 1016.81 1016.80 1016.75 1016.73 1016.72 1016.82 1016.83 1016.97 1016.97 1016.87 1016.89 1016.95 1017.06 1017.15 1017.25 1017.30 1017.37 1017.44 1017.49 1017.56 1017.67 1017.85 1017.92 1017.98 1018.05 1018.02 1018.05 1018.10 1018.03 1018.05 1018.05 1018.16 1018.34 1018.39 1018.48 1018.51 1018.64 1018.76 1018.77 1018.89
1015.88 1016.31 1016.57 1016.75 1016.87 1016.96 1016.94 1017.13 1017.08 1017.01 1017.14 1017.25 1017.11 1017.18 1017.25 1017.23 1017.41 1017.49 1017.57 1017.55 1017.61 1017.75 1017.84 1017.92 1017.89 1018.07 1018.19 1018.25 1018.38 1018.41 1018.42 1018.43 1018.43 1018.26 1018.37 1018.54 1018.62 1018.68 1018.77 1018.87 1018.91 1019.07 1019.09
1015.81 1016.23 1016.52 1016.67 1016.84 1017.03 1017.10 1017.12 1017.16 1017.29 1017.23 1017.40 1017.27 1017.33 1017.50 1017.66 1017.75 1017.77 1017.80 1017.79 1017.90 1017.92 1018.03 1018.10 1018.17 1018.17 1018.41 1018.45 1018.47 1018.54 1018.62 1018.70 1018.52 1018.56 1018.71 1018.81 1018.93 1019.02 1019.07 1019.15 1019.25 1019.31 1019.28
1015.66 1016.19 1016.51 1016.74 1016.93 1017.10 1017.21 1017.33 1017.38 1017.33 1017.34 1017.54 1017.51 1017.52 1017.83 1017.72 1018.04 1018.10 1018.12 1018.22 1018.15 1018.21 1018.25 1018.32 1018.39 1018.41 1018.60 1018.71 1018.65 1018.63 1018.52 1018.43 1018.68 1018.70 1018.87 1019.03 1019.11 1019.29 1019.36 1019.42 1019.52 1019.52 1019.47
1015.65 1016.23 1016.57 1016.81 1017.02 1017.14 1017.23 1017.35 1017.43 1017.50 1017.53 1017.73 1017.75 1017.85 1018.13 1018.25 1018.41 1018.39 1018.46 1018.42 1018.50 1018.47 1018.48 1018.47 1018.59 1018.54 1018.67 1018.77 1018.73 1018.76 1018.57 1018.45 1018.79 1019.01 1019.36 1019.52 1019.55 1019.55 1019.57 1019.67 1019.69 1019.66 1019.66
1016.04 1016.43 1016.66 1016.90 1017.09 1017.22 1017.39 1017.53 1017.64 1017.75 1017.88 1017.98 1018.09 1018.22 1018.38 1018.57 1018.50 1018.57 1018.49 1018.52 1018.61 1018.56 1018.55 1018.62 1018.71 1018.63 1018.65 1018.66 1018.71 1018.73 1018.75 1018.87 1019.06 1019.39 1019.76 1019.77 1019.84 1019.81 1019.85 1019.86 1019.91 1019.96 1019.95
1016.45 1016.68 1016.88 1017.03 1017.18 1017.39 1017.57 1017.70 1017.86 1018.00 1018.10 1018.22 1018.37 1018.50 1018.59 1018.67 1018.63 1018.64 1018.63 1018.59 1018.62 1018.70 1018.71 1018.77 1018.81 1018.79 1018.82 1018.65 1018.83 1018.92 1018.95 1019.21 1019.38 1019.69 1019.98 1020.09 1020.03 1019.95 1019.97 1020.03 1020.15 1020.18 1020.13
1016.29 1016.81 1016.99 1017.19 1017.37 1017.59 1017.85 1017.96 1018.04 1018.24 1018.40 1018.56 1018.57 1018.67 1018.82 1018.92 1018.89 1018.84 1018.81 1018.83 1018.86 1018.96 1018.99 1019.01 1018.97 1018.90 1018.91 1018.89 1018.91 1018.91 1019.13 1019.22 1019.54 1019.78 1020.10 1020.25 1020.15 1020.13 1020.17 1020.17 1020.21 1020.23 1020.23
1015.80 1016.63 1017.13 1017.33 1017.50 1017.80 1018.04 1018.12 1018.36 1018.46 1018.39 1018.50 1018.70 1018.81 1018.96 1019.08 1019.07 1018.99 1018.99 1019.02 1019.07 1019.19 1019.37 1019.46 1019.34 1019.18 1019.07 1019.05 1018.95 1019.04 1019.25 1019.42 1019.70 1019.80 1020.05 1020.31 1020.28 1020.25 1020.31 1020.34 1020.31 1020.27 1020.25
1015.87 1016.40 1017.03 1017.40 1017.68 1018.06 1018.24 1018.34 1018.25 1018.45 1018.69 1018.85 1018.92 1018.99 1019.03 1019.04 1019.26 1019.14 1019.15 1019.11 1019.12 1019.37 1019.55 1019.74 1019.79 1019.73 1019.56 1019.39 1019.21 1019.20 1019.32 1019.47 1019.83 1019.81 1019.98 1020.23 1020.22 1020.21 1020.28 1020.34 1020.35 1020.41 1020.35
1016.08 1016.55 1016.96 1017.27 1017.83 1018.07 1018.38 1018.31 1018.39 1018.59 1018.83 1019.01 1019.10 1019.16 1019.00 1019.35 1019.36 1019.30 1019.40 1019.33 1019.51 1019.87 1019.85 1019.72 1019.79 1019.79 1019.81 1019.61 1019.23 1019.06 1019.31 1019.57 1019.76 1019.81 1019.89 1020.07 1020.13 1020.13 1020.23 1020.29 1020.32 1020.32 1020.24
1016.59 1016.68 1016.98 1017.14 1017.60 1017.82 1018.00 1018.17 1018.33 1018.54 1018.89 1018.83 1019.03 1019.51 1019.86 1019.91 1020.03 1019.66 1019.55 1019.71 1020.11 1019.99 1019.84 1019.85 1019.80 1019.65 1019.47 1019.45 1019.33 1019.03 1019.19 1019.20 1019.56 1019.69 1019.77 1019.86 1019.96 1020.03 1020.10 1020.11 1020.08 1020.06 1020.04
1016.19 1016.49 1016.89 1017.06 1017.37 1017.74 1018.05 1018.27 1018.39 1018.60 1018.73 1018.73 1019.18 1019.58 1019.69 1020.02 1019.76 1020.04 1020.80 1021.15 1020.44 1019.73 1019.71 1020.21 1018.22 1019.00 1019.27 1019.21 1019.25 1019.04 1019.17 1019.15 1019.30 1019.41 1019.63 1019.80 1019.90 1019.89 1019.91 1019.93 1019.86 1019.73 1019.64
1016.08 1016.43 1016.82 1016.91 1017.25 1017.59 1017.91 1018.22 1018.21 1018.29 1018.38 1018.73 1019.51 1019.68 1020.42 1020.29 1019.87 1020.51 1021.46 1021.39 1021.16 1019.99 1020.35 1020.50 1019.58 1018.88 1019.02 1019.07 1019.05 1018.91 1019.07 1019.14 1019.34 1019.46 1019.57 1019.77 1019.87 1019.84 1019.76 1019.69 1019.63 1019.55 1019.37
1015.79 1016.54 1016.87 1016.75 1017.25 1017.60 1017.80 1018.26 1018.24 1018.31 1018.54 1019.09 1019.64 1019.67 1020.61 1020.82 1020.61 1020.27 1021.81 1021.06 1020.32 1019.71 1019.42 1019.58 1019.44 1019.09 1018.97 1018.77 1018.33 1018.18 1018.71 1019.12 1019.19 1019.28 1019.48 1019.58 1019.63 1019.56 1019.48 1019.41 1019.31 1019.24 1019.21
1016.01 1016.56 1016.88 1017.07 1017.36 1017.23 1017.58 1017.77 1018.26 1018.61 1019.01 1018.72 1019.11 1019.30 1019.87 1020.41 1020.74 1020.63 1019.92 1020.19 1019.64 1019.97 1019.54 1019.76 1018.96 1018.99 1018.85 1018.42 1018.41 1018.25 1018.52 1018.96 1019.15 1019.17 1019.35 1019.40 1019.33 1019.31 1019.24 1019.13 1019.03 1018.92 1018.80
1016.24 1016.72 1016.93 1017.12 1017.46 1017.61 1017.87 1017.93 1018.29 1018.51 1018.98 1019.20 1019.25 1019.34 1019.65 1019.89 1019.65 1020.46 1020.02 1020.15 1019.78 1019.61 1019.69 1019.27 1019.28 1018.94 1019.14 1018.60 1018.54 1018.48 1018.33 1018.52 1018.99 1019.10 1019.20 1019.33 1019.23 1019.12 1019.04 1018.93 1018.79 1018.71 1018.61
1015.97 1016.51 1016.80 1017.11 1017.57 1017.87 1018.08 1018.22 1018.44 1018.63 1018.97 1019.09 1019.31 1019.50 1019.61 1019.63 1019.63 1019.29 1019.29 1019.39 1019.36 1018.92 1019.71 1019.33 1019.07 1019.00 1018.96 1019.10 1018.68 1018.71 1018.55 1018.48 1018.55 1018.93 1019.13 1019.28 1019.25 1019.13 1019.19 1019.08 1018.95 1018.92 1018.78
1015.87 1016.42 1016.97 1017.40 1017.69 1018.11 1018.10 1018.14 1018.35 1018.62 1018.96 1018.94 1019.16 1019.25 1019.16 1019.22 1019.28 1019.52 1019.70 1019.94 1019.49 1019.36 1019.21 1019.47 1019.24 1018.72 1018.95 1019.07 1019.10 1018.99 1019.13 1018.99 1018.50 1018.46 1018.94 1019.22 1019.43 1019.31 1019.10 1018.85 1018.83 1018.89 1018.85
1015.90 1016.19 1017.04 1017.54 1017.73 1018.09 1018.24 1018.48 1018.54 1019.09 1018.83 1018.86 1019.07 1019.03 1019.19 1019.39 1019.17 1019.31 1019.76 1019.89 1019.47 1019.89 1019.36 1018.94 1018.89 1018.79 1019.03 1019.03 1019.10 1019.00 1019.10 1019.11 1018.69 1019.00 1018.92 1018.96 1019.21 1019.10 1019.05 1018.79 1018.75 1018.69 1018.72
1015.93 1016.35 1017.25 1017.65 1017.93 1018.19 1018.45 1018.78 1019.01 1019.11 1019.28 1019.36 1019.13 1018.99 1019.25 1019.49 1019.39 1019.43 1019.65 1019.71 1019.50 1019.91 1019.88 1019.48 1019.25 1019.33 1019.35 1019.33 1019.28 1019.25 1019.30 1019.15 1019.01 1019.34 1018.95 1018.85 1019.06 1018.93 1018.91 1019.03 1018.64 1018.68 1018.71
1015.94 1016.48 1017.18 1017.59 1017.91 1018.21 1018.56 1018.68 1018.74 1019.05 1019.50 1019.54 1019.43 1019.28 1019.25 1019.46 1019.44 1019.78 1019.81 1019.75 1020.02 1020.39 1019.99 1019.78 1019.76 1020.08 1019.99 1019.56 1019.96 1020.14 1020.23 1020.19 1019.40 1019.30 1019.37 1019.31 1019.26 1019.04 1018.93 1018.75 1018.54 1018.72 1018.61
1015.79 1016.47 1017.29 1017.51 1017.82 1018.31 1018.55 1018.67 1018.68 1018.99 1019.42 1019.80 1019.55 1019.55 1019.33 1019.38 1019.46 1019.68 1019.99 1020.27 1020.41 1020.33 1020.33 1020.15 1020.17 1020.53 1020.51 1019.93 1019.67 1019.77 1020.60 1020.83 1020.53 1019.83 1020.24 1021.03 1021.90 1022.11 1022.20 1022.41 1021.59 1021.29 1020.31
1015.39 1016.11 1016.79 1017.34 1017.68 1018.22 1018.47 1018.72 1019.05 1019.43 1019.92 1020.22 1020.29 1020.23 1019.61 1019.46 1019.55 1019.54 1019.51 1019.68 1019.84 1020.32 1020.44 1020.39 1020.25 1020.36 1020.41 1020.63 1020.05 1020.04 1021.34 1021.77 1022.09 1021.89 1021.05 1021.67 1022.80 1022.68 1023.28 1022.61 1023.33 1022.60 1021.43
1014.99 1015.81 1016.67 1017.07 1017.65 1018.15 1018.68 1018.99 1019.49 1019.77 1020.27 1020.65 1020.45 1020.38 1020.63 1019.99 1019.60 1019.59 1019.61 1019.59 1019.96 1020.10 1020.19 1020.39 1020.47 1020.50 1020.57 1020.83 1020.91 1020.99 1021.53 1022.46 1022.94 1022.77 1023.17 1022.77 1023.54 1023.11 1022.23 1021.40 1022.55 1023.67 1022.58
1014.86 1015.62 1016.40 1016.92 1017.44 1017.91 1018.55 1018.96 1019.31 1019.84 1020.45 1020.91 1020.52 1020.45 1021.04 1021.05 1020.33 1019.72 1019.54 1019.62 1019.82 1020.02 1020.26 1020.26 1020.40 1020.69 1020.68 1020.65 1020.99 1021.44 1022.03 1022.83 1023.92 1023.16 1023.53 1023.15 1024.33 1023.89 1022.72 1021.80 1021.63 1021.41 1021.61
Wind_Speed
5 7 11 12 11 12 12 12 13 13 13 13 14 16 16 17 17 16 16 17 17 17 17 17 17 16 17 17 17 17 16 17 18 18 18 17 14 11 13 16 14 12 14
13 9 12 13 13 13 14 13 12 13 14 13 14 16 16 17 17 17 17 17 17 17 17 16 17 15 15 15 14 16 15 14 16 17 18 17 17 15 15 15 14 12 14
14 11 10 12 13 12 12 12 13 12 14 12 14 16 17 16 16 17 17 17 17 16 16 16 14 14 14 14 12 10 12 12 11 16 18 8 9 15 14 14 14 14 13
15 10 8 12 11 12 12 12 12 13 13 13 14 14 15 16 15 16 17 16 16 15 15 16 14 11 12 11 9 11 7 5 9 11 8 7 10 13 12 13 12 12 13
14 11 10 13 11 12 13 11 11 13 12 13 14 14 16 15 15 15 15 15 15 15 15 14 13 9 10 9 7 8 10 18 16 13 8 7 5 10 13 13 12 12 11
14 10 12 14 14 11 13 12 12 12 13 13 14 15 15 15 15 15 14 14 14 13 12 12 12 8 8 6 6 10 9 12 15 10 7 8 6 12 12 12 11 10 9
13 9 10 13 14 13 13 12 12 12 13 13 14 15 15 15 14 14 15 16 15 13 13 13 11 7 6 3 6 6 9 15 9 8 7 5 4 8 12 11 9 8 8
15 11 10 14 13 13 14 12 12 13 13 13 13 13 13 13 13 14 15 13 13 12 12 12 10 8 6 3 1 3 7 11 10 8 7 4 8 10 9 8 8 7 6
17 13 8 7 11 13 13 12 13 12 13 13 14 14 14 13 12 13 13 12 11 11 10 9 8 8 6 4 3 1 5 12 6 7 8 3 7 8 8 7 6 5 4
15 14 11 9 7 7 6 13 13 13 12 12 12 14 13 13 11 11 8 9 10 10 10 7 3 2 3 4 5 5 4 8 5 6 5 4 7 7 6 5 4 3 2
12 12 11 11 7 7 6 8 11 13 11 11 9 11 11 4 6 10 8 8 8 7 6 5 3 2 5 8 9 8 2 2 5 4 3 8 6 6 5 3 2 1 1
6 7 8 11 10 9 7 6 6 6 5 5 6 2 2 3 4 5 6 6 4 4 5 4 11 11 8 4 4 9 1 5 5 5 3 8 6 5 4 3 2 1 3
13 11 7 7 9 7 7 3 2 3 4 4 6 5 3 4 2 2 4 4 3 5 2 7 1 2 5 5 5 4 2 4 4 4 6 8 6 5 4 3 3 4 4
10 8 8 7 6 7 6 4 4 4 3 2 5 1 5 6 6 1 4 6 7 1 3 4 5 7 7 6 9 9 5 5 3 3 5 9 7 6 5 5 5 5 5
15 10 8 6 5 4 5 5 4 2 3 5 5 5 6 10 9 2 4 5 4 4 5 5 6 6 6 6 3 6 7 6 6 4 3 10 9 8 7 7 7 7 7
13 13 7 7 5 4 5 9 5 4 5 5 4 3 3 5 7 6 3 4 4 2 5 5 2 3 3 2 4 4 6 7 6 5 4 5 11 10 9 10 9 9 8
13 11 8 8 6 6 6 5 4 4 6 4 2 2 3 3 4 5 4 3 5 4 3 1 3 4 2 1 2 4 4 6 7 5 5 4 5 11 11 11 11 10 9
13 10 8 7 5 6 5 4 3 3 6 6 4 4 3 4 6 3 3 3 4 4 3 5 5 2 4 4 3 4 4 3 5 6 5 4 4 5 8 13 11 10 10
12 9 9 7 7 6 4 2 3 3 2 4 4 4 4 0 4 3 3 5 4 5 4 2 1 1 3 0 4 3 4 3 4 2 7 7 6 5 4 9 13 11 11
12 11 8 6 8 6 4 2 2 3 2 4 3 4 4 2 1 2 3 2 5 4 4 3 4 4 2 2 4 4 4 4 4 3 3 3 6 6 6 6 4 5 10
11 13 7 9 7 4 2 3 2 3 4 1 3 5 3 3 2 3 3 1 3 4 4 5 4 5 4 0 4 3 2 3 5 4 4 4 4 5 6 5 4 3 3
12 9 10 7 8 4 3 2 2 3 3 2 2 4 3 4 1 4 3 1 2 4 4 5 5 4 3 4 2 2 3 6 3 4 2 5 4 4 5 6 3 4 3
12 12 10 10 8 5 3 3 2 4 3 2 1 1 3 5 3 2 4 5 4 1 3 4 4 5 3 3 3 3 3 1 3 4 6 9 15 15 16 19 23 18 14
13 12 14 8 8 6 4 2 5 3 3 1 2 4 3 5 5 3 2 3 3 2 3 3 4 3 4 5 4 4 9 5 3 5 5 8 10 12 10 11 13 14 12
15 12 13 11 7 8 6 3 4 5 2 3 1 3 6 3 3 5 3 3 4 2 3 2 3 6 3 2 3 3 8 10 6 3 3 6 3 2 4 11 2 2 8
14 13 12 12 8 8 7 6 5 7 5 4 2 4 3 5 5 4 3 4 4 2 3 3 2 5 3 3 3 3 3 4 4 4 3 6 3 5 2 6 7 7 8
Wind_Direction
171 154 139 131 119 115 104 106 102 103 100 100 94 96 94 96 100 92 98 95 94 94 95 90 89 87 88 87 91 93 94 96 96 92 87 90 91 112 106 103 98 98 100
142 142 134 122 115 109 104 103 104 109 104 106 104 98 97 95 97 98 97 98 97 93 97 91 91 90 89 93 90 92 98 101 100 96 91 94 92 89 91 93 98 102 98
131 132 131 121 114 113 109 105 106 104 104 105 105 103 104 102 99 103 100 100 101 97 97 98 91 91 95 94 94 101 116 123 84 106 100 91 86 90 90 89 94 89 94
135 128 127 125 120 113 108 109 109 105 108 108 104 107 107 105 102 103 103 105 103 103 101 95 95 93 94 92 92 76 50 158 155 96 90 73 89 91 95 97 97 95 87
123 120 127 124 123 116 110 111 109 108 109 113 112 108 106 106 106 106 106 104 104 103 97 98 96 97 89 89 79 65 47 88 99 87 82 84 74 87 96 95 86 85 86
116 121 124 121 119 116 115 110 110 111 115 119 120 116 116 113 109 109 112 113 111 106 106 108 100 103 90 83 66 46 30 110 100 88 82 79 80 90 91 91 90 87 84
114 121 122 129 120 124 116 118 119 122 123 123 124 129 124 113 112 109 106 104 107 112 110 109 114 120 108 103 56 52 50 111 101 101 93 86 92 108 116 103 95 88 85
125 127 128 129 125 123 121 123 124 123 123 130 129 120 116 111 106 108 104 108 113 116 121 124 135 142 138 142 135 77 74 124 107 100 99 90 87 88 90 93 95 94 92
124 126 126 125 128 125 115 126 125 132 132 128 127 127 123 118 118 120 117 117 122 128 134 136 146 152 167 179 201 60 52 116 120 128 119 110 107 108 106 105 105 102 97
132 137 135 137 126 118 126 128 136 136 131 124 129 134 132 132 128 130 135 140 144 133 132 129 140 212 238 229 223 194 141 105 120 113 113 128 126 117 113 114 111 104 86
128 139 152 148 143 131 131 143 134 136 132 122 130 149 154 147 161 158 163 170 155 129 125 138 156 228 283 287 276 276 206 161 128 127 123 135 136 126 128 127 121 94 13
124 125 134 144 145 150 138 159 150 150 139 135 136 184 140 156 204 164 179 181 135 151 164 123 26 317 263 253 265 270 229 131 138 130 135 149 154 146 152 166 196 244 274
143 144 151 155 156 154 144 171 155 162 164 183 156 176 192 76 53 39 28 359 306 221 193 100 80 212 242 244 254 243 266 138 138 133 152 163 171 175 186 206 234 255 274
140 132 114 146 143 134 154 153 173 166 172 139 74 304 94 52 302 238 88 359 299 246 276 156 218 234 232 238 248 243 199 134 132 132 160 172 188 197 211 230 247 264 277
140 134 132 147 145 165 198 155 176 208 111 115 121 87 112 159 218 321 118 196 202 284 256 252 208 223 210 217 157 119 117 139 143 149 163 181 198 210 217 231 245 257 271
118 132 136 140 120 57 117 143 151 138 107 90 117 139 117 146 163 206 233 207 262 207 274 262 250 272 277 142 123 132 122 158 156 157 168 191 203 215 225 233 242 253 264
135 141 133 125 113 103 129 132 141 120 119 120 165 141 241 308 88 152 216 197 240 222 256 22 252 261 185 245 176 161 156 139 164 167 180 188 211 222 229 235 242 251 261
132 135 141 130 133 127 136 118 121 127 144 164 181 195 205 167 119 40 350 305 294 11 114 312 291 268 210 210 217 185 175 166 166 175 179 186 205 215 241 245 248 257 266
139 139 146 147 162 156 127 105 134 161 167 156 166 167 187 12 109 120 23 24 343 9 332 238 260 173 118 197 238 207 175 193 208 191 189 195 201 224 221 247 243 246 260
134 150 134 156 148 141 128 113 150 96 99 130 144 143 141 193 350 35 89 101 24 12 325 341 6 9 347 320 302 158 206 198 205 217 218 202 203 212 227 230 232 243 248
128 147 138 137 131 125 100 97 107 103 78 60 160 158 170 177 116 15 17 74 39 341 318 321 8 0 353 328 41 352 330 224 203 202 203 250 260 203 231 239 226 243 251
144 151 134 145 143 148 125 156 139 124 149 168 199 143 162 121 186 36 93 26 328 317 327 358 25 358 346 355 117 89 11 337 329 247 194 244 236 269 241 250 235 226 238
151 149 151 155 164 135 108 132 73 73 62 93 277 156 214 161 152 151 143 159 227 308 23 345 11 45 2 324 330 144 66 217 316 351 21 30 25 22 31 21 37 9 33
160 150 157 156 163 140 98 90 138 129 153 36 64 303 222 187 185 206 200 122 96 68 355 323 359 42 40 18 355 15 45 50 63 1 13 25 33 27 34 37 25 5 353
155 156 158 159 163 144 148 161 153 106 97 76 9 109 350 293 219 191 195 160 116 40 353 325 19 36 37 41 40 15 78 62 38 118 2 330 45 35 82 18 66 107 270
163 155 162 168 169 150 163 171 144 151 172 131 136 106 8 326 316 301 205 163 142 135 334 312 96 53 8 40 73 91 115 130 224 143 83 327 332 300 13 139 286 278 233